Hourly Data Report for December 26, 2004

TORONTO CITY
ONTARIO

43°40'00.000" N
79°24'00.000" W
112.50 m
6158355
71508
XTO

Download Data

Hourly Data (December 2004)
Hourly Data Report for December 26, 2004
TIME
LST
Temp Definition
°C
Dew Point Definition
°C
Rel Hum Definition
%
Precip. Amount Definition
mm

Wind Dir Definition
10's deg

Wind Spd Definition
km/h
Visibility Definition
km
Stn Press Definition
kPa
Hmdx Definition


Wind Chill Definition


Weather Definition


00:00 -7.3 -9.7 83   LegendMM LegendMM LegendMM 101.13     LegendNANA
01:00 -7.5 -9.7 84   LegendMM LegendMM LegendMM 101.10     LegendNANA
02:00 -7.5 -9.7 84   LegendMM LegendMM LegendMM 101.09     LegendNANA
03:00 -7.7 -9.9 84   LegendMM LegendMM LegendMM 101.10     LegendNANA
04:00 -7.7 -10.0 84   LegendMM LegendMM LegendMM 101.07     LegendNANA
05:00 -7.5 -9.8 84   LegendMM LegendMM LegendMM 101.07     LegendNANA
06:00 -7.6 -9.8 84   LegendMM LegendMM LegendMM 101.11     LegendNANA
07:00 -7.9 -10.2 84   LegendMM LegendMM LegendMM 101.12     LegendNANA
08:00 -8.3 -10.7 83   LegendMM LegendMM LegendMM 101.09     LegendNANA
09:00 -8.4 -11.2 80   LegendMM LegendMM LegendMM 101.10     LegendNANA
10:00 -8.4 -10.6 84   LegendMM LegendMM LegendMM 101.19     LegendNANA
11:00 -8.6 -10.1 89   LegendMM LegendMM LegendMM 101.18     LegendNANA
12:00 -8.4 -10.2 87   LegendMM LegendMM LegendMM 101.13     LegendNANA
13:00 -8.0 -9.9 86   LegendMM LegendMM LegendMM 101.08     LegendNANA
14:00 -7.8 -9.9 85   LegendMM LegendMM LegendMM 101.11     LegendNANA
15:00 -8.1 -10.1 85   LegendMM LegendMM LegendMM 101.15     LegendNANA
16:00 -8.3 -10.2 86   LegendMM LegendMM LegendMM 101.23     LegendNANA
17:00 -8.5 -10.3 87   LegendMM LegendMM LegendMM 101.32     LegendNANA
18:00 -9.2 -12.4 78   LegendMM LegendMM LegendMM 101.39     LegendNANA
19:00 -10.1 -13.5 76   LegendMM LegendMM LegendMM 101.47     LegendNANA
20:00 -10.7 -14.4 74   LegendMM LegendMM LegendMM 101.57     LegendNANA
21:00 -11.2 -15.1 73   LegendMM LegendMM LegendMM 101.59     LegendNANA
22:00 -11.7 -15.7 72   LegendMM LegendMM LegendMM 101.68     LegendNANA
23:00 -11.8 -16.4 69   LegendMM LegendMM LegendMM 101.72     LegendNANA

Notes on Data Quality.

Legend

  • E = Estimated
  • M = Missing
  • NA = Not Available*
  • [empty] = Indicates an unobserved value
Date modified: